Flag for Romania Weather past 2 weeks in Timișoara, Romania

Now
63 °F

Passing clouds.


Feels Like: 63 °F
Forecast: 43 / 55 °F
Wind: 5 mph from North

Location: Timisoara Airport


UV Index: 0 (Low)

Visibility: N/A


Pressure: 29.71 "Hg

Humidity: 64%

Dew point: 50 °F

Location of TimișoaraLocation

Historic Weather in Timișoara

°F

Timișoara temperature yesterday

Maximum temperature yesterday: 59 °F (at 3:00 PM)
Minimum temperature yesterday: 45 °F (at 12:00 AM)
Average temperature yesterday: 50 °F

Past Weeks' High & Low Weather Summary

 TemperatureHumidityPressure
High73 °F (Apr 4, 4:30 PM)100% (Apr 4, 7:30 AM)30.09 "Hg (Apr 4, 7:30 AM)
Low32 °F (Apr 10, 7:30 AM)33% (Apr 8, 3:00 PM)29.71 "Hg (Apr 5, 4:30 AM)
Average52 °F79%29.94 "Hg
* Reported Apr 3 2:00 PM — Apr 18 2:30 PM, Timișoara, Weather by CustomWeather, © 2014

Note: Actual official high and low records may vary slightly from our data, if they occured in-between our weather recording intervals... More about our weather records

Advertising

Historic Weather Conditions — Data for Previous 24 hours

 ConditionsComfort  
Time TempWeatherWind HumidityBarometerVisibility
2:30 PM
Apr 18
63 °FPassing clouds.3 mph68%29.71 "HgN/A
2:00 PM61 °FPassing clouds.6 mph68%29.71 "HgN/A
1:30 PM61 °FPassing clouds.5 mph72%29.71 "HgN/A
1:00 PM59 °FPassing clouds.2 mph77%29.71 "HgN/A
12:30 PM57 °FSprinkles. Passing clouds.2 mph77%29.74 "HgN/A
12:00 PM59 °FPassing clouds.5 mph72%29.74 "HgN/A
11:30 AM59 °FSprinkles. Passing clouds.6 mph68%29.74 "HgN/A
11:00 AM59 °FPassing clouds.9 mph72%29.74 "HgN/A
10:30 AM57 °FPassing clouds.7 mph77%29.74 "HgN/A
10:00 AM55 °FPassing clouds.9 mph82%29.74 "HgN/A
9:30 AM55 °FPassing clouds.3 mph88%29.74 "HgN/A
9:00 AM55 °FPassing clouds.3 mph88%29.74 "HgN/A
8:30 AM52 °FSunny.6 mph94%29.74 "Hg10 mi
8:00 AM50 °FPassing clouds.3 mph94%29.74 "HgN/A
7:30 AM48 °FClear.5 mph94%29.77 "Hg10 mi
7:00 AM46 °FPassing clouds.8 mph100%29.77 "HgN/A
6:30 AM46 °FClear.5 mph93%29.77 "Hg10 mi
6:00 AM46 °FClear.6 mph93%29.77 "Hg10 mi
5:30 AM48 °FPassing clouds.5 mph94%29.77 "HgN/A
5:00 AM48 °FClear.5 mph94%29.77 "Hg10 mi
4:30 AM48 °FClear.6 mph100%29.80 "Hg10 mi
4:00 AM48 °FClear.8 mph94%29.80 "Hg10 mi
3:30 AM48 °FClear.6 mph94%29.80 "Hg10 mi
3:00 AM48 °FClear.7 mph94%29.80 "Hg10 mi
2:30 AM46 °FClear.7 mph93%29.83 "Hg10 mi
2:00 AM46 °FClear.5 mph93%29.83 "Hg10 mi
1:30 AM45 °FClear.3 mph93%29.83 "Hg10 mi
1:00 AM45 °FClear.5 mph100%29.86 "Hg10 mi
12:30 AM46 °FClear.7 mph93%29.86 "Hg10 mi
12:00 AM46 °FClear.5 mph93%29.86 "Hg10 mi
11:30 PM
Apr 17
48 °FClear.5 mph94%29.86 "Hg10 mi
11:00 PM48 °FClear.2 mph94%29.86 "Hg10 mi
10:30 PM48 °FClear.3 mph94%29.89 "Hg10 mi
10:00 PM50 °FPassing clouds.3 mph94%29.89 "HgN/A
9:30 PM48 °FPassing clouds.5 mph94%29.89 "HgN/A
9:00 PM48 °FPassing clouds.6 mph94%29.89 "HgN/A
8:00 PM52 °FPassing clouds.5 mph94%29.89 "HgN/A
7:30 PM54 °FPassing clouds.7 mph94%29.89 "HgN/A
7:00 PM55 °FSunny.6 mph88%29.92 "Hg10 mi
6:30 PM55 °FSunny.8 mph88%29.89 "Hg10 mi
6:00 PM57 °FSunny.9 mph77%29.89 "Hg10 mi
5:30 PM57 °FPassing clouds.7 mph77%29.92 "HgN/A
5:00 PM57 °FPassing clouds.5 mph72%29.92 "HgN/A
4:30 PM57 °FPassing clouds.5 mph72%29.92 "HgN/A
4:00 PM57 °FScattered clouds.3 mph67%29.92 "HgN/A
3:30 PM59 °FScattered clouds.2 mph63%29.92 "HgN/A
3:00 PM59 °FScattered clouds.2 mph68%29.92 "HgN/A
Weather by CustomWeather, © 2014

See weather overview